Location: Marcé
(47.5801°N, 0.3280°W)
Time: 05:27:13
(UTC+01:00)

ISS - Pass Details

Date: 27 October 2021
Orbit: 417 x 422 km, 51.6° (Epoch: 04 December)

Event Time Altitude Azimuth Distance (km) Brightness Sun altitude
Exits shadow 07:54:20 11° 272° (W) 1,472 -1.7 -7.9°
Maximum altitude 07:57:32 48° 348° (NNW) 561 -3.3 -7.4°
Drops below altitude 10° 08:00:48 10° 64° (ENE) 1,500 -0.1 -6.9°
Sets 08:02:57 0° 70° (ENE) 2,364 1.2 -6.5°
